Погода в Емаше-Павлове

Россия / Пермский край     56°19′25″N   56°05′41″E
темп.,
°C
ветер,
м/с
пор.,
м/с
влажн.,
%
обл.,
%
осадки,
мм/ч
давл.,
гПа
погр.,
м
9 мая, вс
вс923:00+11зюз128198 0.4 101715
02:00+11ю2280100 0.0 101712
05:00+10ююз118499 0.0 101710
08:00+13в11705 0.0 1017118
11:00+18св00525 0.0 1017750
14:00+21св12412 0.0 10161837
17:00+22ссз023417 0.0 10162153
20:00+19всв224710 0.0 101618
10 мая, пн
пн1023:00+14юв22634 0.0 101821
02:00+12вюв33655 0.0 101845
05:00+11вюв33654 0.0 102043
08:00+15юв35590 0.0 1021208
11:00+20юв34442 0.0 1021848
14:00+23юв343495 0.0 10222331
17:00+23вюв3332100 0.0 10222519
20:00+19юв2247100 0.0 102211
11 мая, вт
вт1123:00+15юв225279 0.0 102411
02:00+13юв2256100 0.0 102510
05:00+12вюв2256100 0.0 102611
08:00+15юв2253100 0.0 1027109
11:00+19ююв2245100 0.0 1028372
14:00+21юз1138100 0.0 1028967
17:00+23зсз11355 0.0 10281712
20:00+20зюз014753 0.0 102811
12 мая, ср
ср1223:00+18ссз225262 0.0 102918
02:00+14св337933 0.0 103044
05:00+14св348175 0.0 1030117
08:00+16всв347519 0.0 1031237
11:00+20ссв345954 0.0 1031818
14:00+22ссз33475 0.0 10301366
17:00+23с333638 0.0 10301618
20:00+20св22505 0.0 103024
13 мая, чт
чт1323:00+15всв2260100 0.0 103012
02:00+14всв226785 0.0 103011
05:00+13всв227025 0.0 103115
08:00+16всв23616 0.0 1031160
11:00+21св224553 0.0 1030727
14:00+24ссв22399 0.0 10291414
17:00+25с223784 0.0 10281571
20:00+22сз114957 0.0 102811